Location: Normandy Village
(37.8755°N, 122.2655°W)
Time: 08:58:41
(UTC+00:00)

H-2A R/B - Pass Details

Date: 22 September 2019
Orbit: 529 x 654 km, 98.3° (Epoch: 19 October)

Event Time Altitude Azimuth Distance (km) Brightness Sun altitude
Rises 13:17:49 0° 350° (N) 2,676 5.8 -8.5°
Reaches altitude 10° 13:20:53 10° 322° (NW) 1,782 4.6 -7.9°
Maximum altitude 13:22:41 13° 294° (WNW) 1,597 4.2 -7.5°
Drops below altitude 10° 13:24:29 10° 266° (W) 1,785 4.2 -7.2°
Enters shadow 13:24:53 - 261° (W) 1,873 4.3 -7.1°
